Home   Weather   Netherlands   Nijmegen   Past weeks
Flag for Netherlands

Past Weather in Nijmegen, Netherlands — Yesterday and Last 2 Weeks

Currently: 57 °F. Fog. (Weather station: Volkel, Netherlands). See more current weather

Past Weather in Nijmegen — Graph

°F

Nijmegen Temperature Yesterday

Maximum temperature yesterday: 64 °F (at 2:30 pm)
Minimum temperature yesterday: 52 °F (at 11:15 pm)
Average temperature yesterday: 59 °F

High & Low Weather Summary for the Past Weeks

 TemperatureHumidityPressure
High81 °F (May 14, 2:25 pm)100% (May 15, 12:31 am)30.21 "Hg (May 15, 12:31 am)
Low50 °F (May 24, 3:55 am)36% (May 12, 5:25 pm)29.59 "Hg (May 16, 8:25 am)
Average62 °F83%29.84 "Hg
* Reported May 11 7:26 am — May 26 7:14 am, Nijmegen. Weather by CustomWeather, © 2024

Note: Actual official high and low records may vary slightly from our data, if they occured in-between our weather recording intervals... More about our weather records

Nijmegen Weather History for the Previous 24 Hours

Scroll right to see more
 ConditionsComfort  
Time TempWeatherWind HumidityBarometerVisibility
7:14 am
Sun, May 26
55 °FFog.5 mph94%30.01 "Hg5 mi
6:55 am54 °FFog.3 mph100%30.01 "Hg4 mi
6:35 am54 °FFog.3 mph94%30.01 "Hg4 mi
6:02 am52 °FFog.3 mph100%30.01 "Hg2 mi
5:25 am50 °FFog.5 mph100%30.01 "Hg2 mi
5:09 am50 °FFog.5 mph100%30.01 "Hg2 mi
4:55 am50 °FFog.6 mph100%30.01 "Hg2 mi
4:25 am50 °FFog.5 mph100%30.01 "Hg2 mi
3:34 am50 °FFog.2 mph100%30.01 "Hg0 mi
3:25 am50 °FFog.1 mph100%30.01 "Hg1 mi
2:55 am52 °FFog.3 mph100%30.04 "Hg1 mi
2:25 am52 °FFog.3 mph100%30.04 "Hg2 mi
1:56 am52 °FFog.5 mph100%30.04 "Hg2 mi
1:42 am52 °FFog.5 mph94%30.04 "Hg2 mi
1:25 am52 °FFog.3 mph94%30.04 "Hg2 mi
12:55 am52 °FFog.2 mph100%30.04 "Hg0 mi
12:32 am54 °FFog.1 mph94%30.04 "Hg2 mi
12:14 am52 °FFog.1 mph100%30.04 "Hg1 mi
12:00 am52 °FFog.2 mph100%30.04 "Hg1 mi
11:34 pm
Sat, May 25
52 °FFog.1 mph100%30.04 "Hg1 mi
11:15 pm52 °FFog.No wind100%30.04 "Hg1 mi
10:25 pm54 °FClear.1 mph100%30.04 "HgN/A
9:55 pm55 °FClear.2 mph94%30.04 "HgN/A
9:25 pm57 °FPassing clouds.2 mph94%30.04 "HgN/A
8:55 pm61 °FClear.3 mph77%30.04 "HgN/A
8:25 pm63 °FClear.6 mph73%30.04 "HgN/A
7:55 pm64 °FClear.6 mph73%30.01 "HgN/A
7:25 pm64 °FPartly sunny.7 mph73%30.01 "HgN/A
7:09 pm64 °FScattered clouds.9 mph73%30.01 "HgN/A
6:25 pm61 °FLight rain. Mostly cloudy.2 mph94%30.01 "HgN/A
6:21 pm61 °FSprinkles. Mostly cloudy.5 mph88%30.01 "HgN/A
5:55 pm63 °FBroken clouds.2 mph88%30.01 "HgN/A
5:43 pm63 °FPartly sunny.1 mph83%30.01 "HgN/A
5:33 pm63 °FPartly sunny.2 mph83%30.01 "HgN/A
5:19 pm61 °FCloudy.2 mph88%30.01 "HgN/A
5:01 pm59 °FDrizzle. Cloudy.5 mph94%30.01 "HgN/A
5:00 pm59 °FDrizzle. Mostly cloudy.6 mph94%30.01 "HgN/A
4:25 pm63 °FMostly cloudy.6 mph83%30.01 "HgN/A
3:42 pm59 °FDrizzle. Broken clouds.10 mph94%30.01 "Hg4 mi
3:25 pm63 °FMore clouds than sun.9 mph77%30.01 "HgN/A
2:30 pm64 °FMostly cloudy.14 mph73%30.01 "HgN/A
2:11 pm61 °FBroken clouds.10 mph88%30.01 "HgN/A
2:04 pm61 °FMostly cloudy.12 mph88%30.01 "HgN/A
1:26 pm59 °FBroken clouds.8 mph94%30.01 "HgN/A
1:18 pm59 °FDrizzle. Broken clouds.8 mph94%30.01 "Hg6 mi
12:55 pm61 °FBroken clouds.9 mph88%30.01 "HgN/A
12:25 pm59 °FMostly cloudy.9 mph94%30.01 "HgN/A
11:56 am59 °FFog.8 mph94%30.01 "Hg4 mi
11:25 am59 °FBroken clouds.7 mph94%30.01 "HgN/A
10:44 am61 °FMore clouds than sun.6 mph88%29.98 "Hg4 mi
9:55 am63 °FPartly sunny.3 mph77%29.98 "HgN/A
9:33 am61 °FFog.3 mph88%29.98 "Hg4 mi
9:25 am59 °FFog.3 mph94%29.98 "Hg3 mi
9:12 am61 °FFog.3 mph88%29.98 "Hg3 mi
8:27 am59 °FFog.3 mph94%29.98 "Hg3 mi
8:10 am57 °FFog.3 mph100%29.98 "Hg2 mi
Weather by CustomWeather, © 2024

See weather overview